This demonstration page uses our WeatherBlox Daily Observations layout. Learn more.

Left ArrowRight Arrow

Hourly Observations for December 1, 2015

Temp ( °F °C ) Dew Point ( °F °C ) Humidity (%) Winds ( mph kmh ) Pressure ( in mb ) Visibility ( mi km ) Precip ( " mm )
12:01 am 00:01 Cloudy 32 0 28 -2 87 87 WSW 13 20 29.83 1010 10 16 0.00 0.00
12:58 am 00:58 Mostly Cloudy 30 -1.1 27 -2.6 90 90 SW 8 13 29.83 1010 10 16 0.00 0.00
1:00 am 01:00 Mostly Cloudy 30 -1 27 -3 86 86 SW 8 13 29.85 1011 10 16 0.00 0.00
1:27 am 01:27 Partly Cloudy 28 -2 27 -3 93 93 SW 8 13 29.85 1011 10 16 0.00 0.00
1:58 am 01:58 Clear 27 -2.7 24 -4.2 90 90 SW 9 15 29.83 1010 10 16 0.00 0.00
2:58 am 02:58 Mostly Clear 26 -3.3 23 -5 88 88 SSW 7 11 29.83 1010 10 16 0.00 0.00
3:58 am 03:58 Partly Cloudy 26 -3.6 22 -5.3 88 88 SSW 6 9 29.80 1009 10 16 0.00 0.00
4:58 am 04:58 Clear 25 -3.8 22 -5.6 87 87 SSW 6 9 29.79 1009 10 16 0.00 0.00
5:58 am 05:58 Clear 24 -4.4 21 -6 89 89 SSW 5 7 29.78 1008 10 16 0.00 0.00
6:58 am 06:58 Clear 24 -4.2 21 -6 87 87 SSW 8 13 29.78 1008 10 16 0.00 0.00
7:58 am 07:58 Cloudy 24 -4.2 21 -5.9 88 88 SSW 3 6 29.79 1009 10 16 0.00 0.00
8:58 am 08:58 Mostly Sunny 26 -3.2 23 -5.2 86 86 SSW 10 17 29.78 1009 10 16 0.00 0.00
9:38 am 09:38 Partly Cloudy with Light Wintry Mix 28 -2 25 -4 86 86 SW 10 17 29.80 1009 10 16 0.00 0.00
9:47 am 09:47 Mostly Sunny 28 -2 25 -4 86 86 SW 10 17 29.80 1009 10 16 0.00 0.00
9:58 am 09:58 Sunny 29 -1.5 25 -3.9 84 84 SW 8 13 29.78 1009 10 16 0.00 0.03
10:44 am 10:44 Partly Cloudy with Light Wintry Mix 32 0 25 -4 75 75 WSW 16 26 29.77 1008 10 16 0.00 0.00
10:55 am 10:55 Sunny 32 0 25 -4 75 75 WSW 12 19 29.77 1008 10 16 0.00 0.00
10:58 am 10:58 Sunny 32 0 26 -3.6 77 77 WSW 15 24 29.78 1009 10 16 0.00 0.03
11:24 am 11:24 Mostly Cloudy 32 0 25 -4 75 75 WSW 13 20 29.77 1008 10 16 0.00 0.00
11:31 am 11:31 Mostly Cloudy with Light Wintry Mix 32 0 25 -4 75 75 W 14 22 29.77 1008 10 16 0.00 0.00
11:36 am 11:36 Mostly Cloudy with Light Snow 32 0 25 -4 75 75 WSW 17 28 29.77 1008 9 14 0.00 0.00
11:45 am 11:45 Mostly Cloudy with Light Snow 32 0 27 -3 80 80 W 13 20 29.77 1008 6 10 0.00 0.00
11:54 am 11:54 Mostly Cloudy with Light Snow 32 0 27 -3 80 80 WSW 13 20 29.77 1008 5 8 0.00 0.00
11:58 am 11:58 Mostly Cloudy with Light Snow 32 -0.2 26 -3.1 81 81 WSW 15 24 29.78 1009 4 6 0.00 0.03
11:59 am 11:59 Cloudy with Light Snow 32 0 27 -3 80 80 WSW 14 22 29.77 1008 3 5 0.00 0.00
12:06 pm 12:06 Cloudy with Light Snow 32 0 27 -3 80 80 WSW 14 22 29.77 1008 3 4 0.00 0.00
12:21 pm 12:21 Cloudy with Light Snow 32 0 28 -2 87 87 WSW 13 20 29.77 1008 3 4 0.00 0.00
12:29 pm 12:29 Cloudy with Light Snow 32 0 28 -2 87 87 WSW 14 22 29.77 1008 3 4 0.00 0.00
12:41 pm 12:41 Cloudy with Light Snow 32 0 28 -2 87 87 WSW 15 24 29.77 1008 3 4 0.00 0.00
12:47 pm 12:47 Cloudy with Light Snow 32 0 28 -2 87 87 WSW 14 22 29.77 1008 3 5 0.00 0.00
12:58 pm 12:58 Cloudy 31 -0.3 28 -2.3 87 87 WSW 13 20 29.78 1009 7 11 0.00 0.03
1:06 pm 13:06 Cloudy 32 0 28 -2 87 87 WSW 13 20 29.77 1008 10 16 0.00 0.00
1:09 pm 13:09 Cloudy 32 0 28 -2 87 87 WSW 14 22 29.77 1008 10 16 0.00 0.00
1:58 pm 13:58 Cloudy 33 0.4 26 -3.2 77 77 WSW 10 17 29.79 1009 10 16 0.00 0.03
2:58 pm 14:58 Cloudy 33 0.6 26 -3.6 74 74 WSW 12 19 29.79 1009 10 16 0.00 0.00
4:46 pm 16:46 Cloudy 32 0 27 -3 80 80 WSW 12 19 29.80 1009 10 16 0.00 0.00
4:58 pm 16:58 Cloudy 33 0.6 27 -3 77 77 WSW 10 17 29.82 1010 10 16 0.00 0.03
5:10 pm 17:10 Cloudy with Light Snow 32 0 27 -3 80 80 W 13 20 29.80 1009 10 16 0.00 0.00
5:45 pm 17:45 Cloudy 32 0 27 -3 80 80 W 12 19 29.80 1009 10 16 0.00 0.00
5:58 pm 17:58 Cloudy with Light Snow 33 0.4 33 0.3 99 99 SSW 7 11 29.86 1011 4 6 0.01 0.25
6:08 pm 18:08 Cloudy with Light Snow 32 0 27 -3 80 80 W 10 17 29.80 1009 10 16 0.00 0.00
6:51 pm 18:51 Cloudy 32 0 28 -2 87 87 W 10 17 29.80 1009 10 16 0.00 0.00
6:58 pm 18:58 Cloudy with Light Snow 33 0.6 28 -2.2 82 82 W 12 19 29.84 1010 8 13 0.00 0.03
7:58 pm 19:58 Cloudy with Light Snow 33 0.4 29 -1.7 86 86 W 12 19 29.84 1010 8 13 0.00 0.03
8:58 pm 20:58 Cloudy with Light Snow 33 0.6 29 -1.9 84 84 W 12 19 29.84 1011 7 11 0.00 0.03
9:40 pm 21:40 Cloudy with Light Snow 32 0 30 -1 93 93 W 12 19 29.83 1010 4 6 0.00 0.00
9:58 pm 21:58 Cloudy with Light Snow 33 0.3 30 -1.3 89 89 WNW 10 17 29.84 1011 4 6 0.00 0.03
10:58 pm 22:58 Cloudy with Light Snow 33 0.4 30 -1.1 90 90 WNW 10 17 29.85 1011 6 10 0.00 0.03
11:17 pm 23:17 Cloudy with Light Snow 32 0 32 0 100 100 WNW 10 17 29.85 1011 4 6 0.00 0.00
11:22 pm 23:22 Cloudy with Light Snow 32 0 32 0 100 100 WNW 10 17 29.85 1011 4 6 0.00 0.00
11:24 pm 23:24 Cloudy with Light Snow 32 0 32 0 100 100 WNW 12 19 29.85 1011 4 6 0.00 0.00
11:36 pm 23:36 Cloudy with Light Snow 32 0 32 0 100 100 WNW 10 17 29.85 1011 4 6 0.00 0.00
11:58 pm 23:58 Cloudy with Light Snow 33 0.4 31 -0.8 92 92 WNW 10 17 29.86 1011 4 6 0.01 0.25

Powered by AerisWeather